This demonstration page uses our WeatherBlox Daily Observations layout. Learn more.

Left ArrowRight Arrow

41.55636, -103.73856

Hourly Observations for October 12, 2018

Temp ( °F °C ) Dew Point ( °F °C ) Humidity (%) Winds ( mph kmh ) Pressure ( in mb ) Visibility ( mi km ) Precip ( " mm )
12:58 am 00:58 Mostly Cloudy with Light Showers 38 3.4 36 2.2 92 92 W 7 11 30.00 1016 10 16 N/A
1:58 am 01:58 Mostly Clear 35 1.7 34 0.9 94 94 WNW 10 17 30.04 1017 10 16 N/A
2:58 am 02:58 Windy with Rain Showers Likely 35 1.7 34 0.9 94 94 NW 22 35 30.07 1018 10 16 N/A
3:58 am 03:58 Cloudy with Light Snow Showers 33 0.6 32 0.1 97 97 NNW 17 28 30.07 1018 8 13 N/A
4:58 am 04:58 Mostly Cloudy 32 -0.2 30 -1.1 94 94 NW 13 20 30.11 1020 10 16 N/A
5:58 am 05:58 Clear 30 -1.2 28 -2 94 94 NW 12 19 30.12 1020 10 16 N/A
6:58 am 06:58 Clear 28 -2.5 26 -3.4 94 94 NW 9 15 30.13 1020 10 16 N/A
7:58 am 07:58 Sunny 30 -1.1 27 -2.9 88 88 NW 7 11 30.13 1020 10 16 N/A
8:58 am 08:58 Sunny 36 2.3 27 -2.9 69 69 NNW 8 13 30.12 1020 10 16 N/A
9:58 am 09:58 Sunny 42 5.7 29 -1.4 61 61 NNW 17 28 30.09 1019 10 16 N/A
12:58 pm 12:58 Sunny 56 13.1 29 -1.6 36 36 NNW 16 26 29.96 1015 10 16 N/A
1:58 pm 13:58 Sunny 58 14.2 26 -3.5 29 29 NNW 22 35 29.91 1013 10 16 N/A
2:58 pm 14:58 Sunny 60 15.5 24 -4.7 25 25 NW 14 22 29.87 1012 10 16 N/A
3:58 pm 15:58 Sunny 60 15.8 24 -4.7 24 24 WNW 14 22 29.88 1012 10 16 N/A
4:58 pm 16:58 Sunny 61 15.9 22 -5.4 23 23 NNW 16 26 29.87 1011 10 16 N/A
5:58 pm 17:58 Sunny 57 13.8 25 -4.1 29 29 NNW 13 20 29.90 1012 10 16 N/A
6:58 pm 18:58 Clear 50 10 26 -3.3 39 39 W 8 13 29.94 1014 10 16 N/A
7:58 pm 19:58 Clear 49 9.2 28 -2.3 45 45 WSW 6 9 29.94 1014 10 16 N/A
8:58 pm 20:58 Clear 42 5.8 29 -1.6 59 59 WSW 12 19 29.94 1014 10 16 N/A
9:58 pm 21:58 Clear 41 4.8 29 -1.8 63 63 WSW 5 7 29.92 1013 10 16 N/A
10:58 pm 22:58 Clear 41 4.9 29 -1.8 62 62 WSW 8 13 29.88 1012 10 16 N/A
11:58 pm 23:58 Clear 38 3.3 29 -1.5 71 71 W 9 15 29.86 1011 10 16 N/A

Powered by AerisWeather